Terminal Aerodrome Forecast
Issued by NWS Binghamton, NY

Home | Current Version | Previous Version | Text Only | Print | Product List | Glossary On
Versions: 1 2 3 4 5 6 7 8 9 10 11 12 13 14 15 16 17 18
285
FTUS41 KBGM 092338
TAFSYR
TAF
KSYR 092338Z 1000/1024 VRB03KT 1 1/2SM -SN OVC015
     FM100300 23004KT P6SM BKN025 OVC050
     FM101300 25008KT 2SM -SN OVC012=

USA.gov is the U.S. government's official web portal to all federal, state and local government web resources and services.